Location: Vancouver
(49.2500°N, 123.1330°W)
Time: 13:38:59
(UTC-07:00)

ISS - Visible Passes

Search period start: 06 May 2016 00:00
Search period end: 16 May 2016 00:00
Orbit: 402 x 405 km, 51.6° (Epoch: 06 May)

Date Brightness Start Highest point End Pass type
(mag) Time Alt. Az. Time Alt. Az. Time Alt. Az.
10 May -0.7 04:32:03 10° SSE 04:33:28 12° SE 04:34:53 10° ESE visible
12 May -1.6 04:22:03 12° SSW 04:24:25 23° SE 04:27:06 10° E visible
13 May -1.1 03:31:21 14° SSE 03:32:01 14° SE 03:33:54 10° ESE visible
14 May -2.7 04:13:13 17° SW 04:15:26 42° SSE 04:18:33 10° ENE visible
15 May -2.1 03:22:25 26° SSE 03:22:55 27° SE 03:25:45 10° E visible
